Hourly Data Report for October 04, 2017

All times are specified in Local Standard Time (LST). Add 1 hour to adjust for Daylight Saving Time where and when it is observed.

KENTVILLE CDA CS
NOVA SCOTIA

45°04'00.000" N
64°29'00.000" W
48.70 m
8202810
71671
XKT

Download Data

Hourly Data (October 2017)
Hourly Data Report for October 4, 2017
Temp Definition
°C
Dew Point Temp Definition
°C
Rel Hum Definition
%
Wind Dir Definition
10's deg

Wind Spd Definition
km/h
Visibility Definition
km
Stn Press Definition
kPa
Hmdx Definition


Wind Chill Definition


Weather Definition


TIME
00:00 8.1 5.8 85 21 8   102.39     LegendNANA
01:00 8.2 6.0 86 22 8   102.30     LegendNANA
02:00 6.0 4.0 87 25 3   102.26     LegendNANA
03:00 5.8 4.0 88 30 5   102.18     LegendNANA
04:00 5.0 4.4 96 1 3   102.13     LegendNANA
05:00 4.3 3.8 97 9 1   102.06     LegendNANA
06:00 5.3 4.8 97 1 4   102.01     LegendNANA
07:00 9.2 8.4 95 25 7   101.96     LegendNANA
08:00 12.2 8.9 80 23 12   101.90     LegendNANA
09:00 13.7 9.6 76 23 20   101.83     LegendNANA
10:00 16.6 11.0 70 24 14   101.76     LegendNANA
11:00 18.5 10.8 61 25 12   101.68     LegendNANA
12:00 19.6 11.8 61 26 12   101.57     LegendNANA
13:00 20.0 11.3 57 25 16   101.45     LegendNANA
14:00 20.7 11.1 54 26 12   101.36     LegendNANA
15:00 20.9 12.1 57 25 11   101.32     LegendNANA
16:00 21.1 11.7 55 25 13   101.23     LegendNANA
17:00 19.9 10.1 53 23 12   101.17     LegendNANA
18:00 17.1 10.6 65 21 7   101.12     LegendNANA
19:00 15.5 10.5 72 22 9   101.08     LegendNANA
20:00 14.5 10.1 75 23 9   101.05     LegendNANA
21:00 13.8 10.0 78 21 11   101.01     LegendNANA
22:00 13.2 10.1 81 22 12   100.95     LegendNANA
23:00 13.3 10.2 82 24 11   100.85     LegendNANA

Notes on Data Quality.

Legend

  • E = Estimated
  • M = Missing
  • NA = Not Available
  • ‡ = Partner data that is not subject to review by the National Climate Archives
Date modified: